Location: Mamatlar
(37.0052°N, 29.9166°E)
Time: 04:55:40
(UTC+00:00)

Daily predictions for brighter satellites

Satellite Brightness Start Highest point End
(mag) Time Altitude Azimuth Time Altitude Azimuth Time Altitude Azimuth
IDEFIX/ARIANE 42P 3.9 00:13:38 10° N 00:16:41 32° NNW 00:16:41 32° NNW
ISS -0.5 00:23:17 12° ENE 00:23:17 12° ENE 00:23:36 10° ENE
Envisat 3.6 00:16:51 10° NNE 00:21:15 51° ENE 00:21:15 51° ENE
Iridium 4 Rocket 4.2 00:23:28 47° NE 00:23:28 47° NE 00:27:22 10° N
H-2A R/B 4.2 00:31:28 26° NE 00:31:28 26° NE 00:33:49 10° N
Cosmos 1763 Rocket 4.0 00:33:22 53° NNW 00:33:22 53° NNW 00:37:37 10° NNE
ADEOS II 3.0 00:29:47 10° NNE 00:34:42 41° E 00:35:39 37° SE
ADEOS Rocket 3.6 00:33:04 10° N 00:40:36 62° WNW 00:41:53 55° WSW
ALOS 2.6 00:37:25 10° NNE 00:41:29 59° ENE 00:41:29 59° ENE
CZ-2D R/B 2.2 00:37:37 10° NNE 00:42:53 70° ESE 00:43:17 67° SE
USA 281 3.7 00:51:27 42° WNW 00:51:27 42° WNW 00:56:27 10° NW
DELTA 2 R/B (1) 4.3 00:52:27 40° SSE 00:52:27 40° SSE 00:57:29 10° E
SL-19 R/B 4.5 00:49:43 10° NNE 00:55:28 73° ESE 00:57:22 45° S
Cosmos 1354 Rocket 4.0 00:51:11 10° NNW 00:56:29 82° ENE 00:58:08 45° SSE
Cosmos 2360 Rocket 2.1 00:51:43 10° NNW 00:57:26 83° ENE 01:01:44 18° SSE
Cosmos 1503 Rocket 4.3 00:52:41 10° NNW 00:56:51 52° NW 00:56:51 52° NW
Cosmos 2333 Rocket 2.6 00:52:50 10° NNW 00:57:05 45° WNW 00:57:05 45° WNW
ATLAS 5 CENTAUR R/B 3.3 00:57:43 44° S 00:59:13 60° ESE 01:12:46 10° NE
Cosmos 540 Rocket 4.2 01:01:37 39° NW 01:01:37 39° NW 01:05:59 10° N
Cosmos 468 Rocket 3.9 01:06:36 63° W 01:07:02 66° WNW 01:12:18 10° NNE
Resurs 1-4 Rocket 2.2 01:06:31 10° N 01:11:42 56° WNW 01:12:17 53° W
Cosmos 2278 4.2 01:06:40 10° NW 01:11:11 42° W 01:11:11 42° W
H-2A R/B 3.9 01:09:05 10° NE 01:12:22 25° E 01:15:00 13° SSE
Cosmos 2322 Rocket 2.1 01:07:04 10° NNW 01:12:40 66° WSW 01:15:03 35° S
CRYOSAT 2 4.4 01:18:22 23° SSE 01:21:26 76° E 01:26:19 10° N
Cosmos 1766 Rocket 3.3 01:19:06 10° N 01:23:26 84° W 01:24:44 45° S
H-2A R/B 2.1 01:21:19 10° N 01:26:25 60° WNW 01:27:58 42° SW
Cosmos 2219 Rocket 2.1 01:21:03 10° NNW 01:26:44 88° ENE 01:32:23 10° SSE
SL-16 R/B 3.8 01:22:51 10° NW 01:24:53 19° WNW 01:24:53 19° WNW
Meteor 1-11 Rocket 4.1 01:22:36 10° NNW 01:28:06 43° W 01:29:12 39° WSW
USA 267 4.3 01:24:36 10° NNE 01:30:22 34° NNW 01:34:01 20° W
SL-14 R/B 4.1 01:28:27 20° SSE 01:30:47 47° E 01:34:33 10° NNE
SL-4 R/B 2.3 01:31:42 10° NW 01:35:32 59° NE 01:39:12 10° ESE
ARGOS 3.3 01:31:08 10° NNE 01:36:31 73° ESE 01:40:54 16° S
METEOR-M 4.1 01:34:01 10° N 01:39:18 68° WNW 01:42:08 28° SSW
Gbstr 26 Del rocket 3.3 01:38:27 10° NW 01:42:06 54° NE 01:45:53 10° ESE
SL-08 R/B 4.5 01:46:20 10° N 01:52:41 87° W 01:59:00 10° S
Cosmos 372 Rocket 3.8 01:47:54 10° NNW 01:53:01 70° WSW 01:58:04 10° S
Meteor 2-4 Rocket 4.3 01:52:16 27° WSW 01:54:15 35° WNW 01:59:08 10° N
Cosmos 1655 Rocket 4.5 01:48:53 10° NNW 01:54:34 38° W 01:58:40 18° SSW
ISS -2.1 01:56:14 21° WNW 01:57:22 25° NNW 02:00:13 10° NNE
NOSS 3-4 (A) 3.9 01:51:39 10° NW 01:58:48 81° WSW 02:07:09 10° SSE
NOSS 3-4 (C) 3.9 01:52:11 10° NW 01:59:22 82° WSW 02:07:42 10° SSE
Cosmos 1244 Rocket 4.5 01:53:27 10° NNW 01:59:36 64° W 02:05:39 10° S
Cosmos 1066 Rocket 4.4 01:56:41 22° SW 01:59:49 46° WNW 02:04:58 10° N
USA 234 3.3 01:57:22 10° SE 02:03:53 84° NE 02:10:28 10° NW
Aureole 1 Rocket 3.9 01:59:52 10° NW 02:04:12 39° WSW 02:09:29 10° S
Cosmos 1461 4.2 02:03:16 19° WNW 02:04:19 21° NW 02:07:13 10° N
H-2A R/B 4.4 02:06:25 11° WNW 02:06:25 11° WNW 02:06:43 10° WNW
Cosmos 2084 Rocket 3.8 02:04:24 10° NW 02:08:18 38° WSW 02:12:14 10° S
Cosmos 1151 Rocket 2.9 02:04:35 10° S 02:08:47 85° W 02:13:02 10° N
AQUA 4.0 02:04:56 10° N 02:09:27 50° WNW 02:13:09 15° SW
Nadezhda 2 Rocket 4.5 02:03:37 10° NNW 02:09:37 61° W 02:15:35 10° S
S3M 4.2 02:05:30 10° S 02:11:51 81° E 02:18:11 10° N
Cosmos 2297 Rocket 2.4 02:06:41 10° SSW 02:12:17 72° ESE 02:17:54 10° NNE
Cosmos 1386 Rocket 4.4 02:07:43 10° N 02:13:52 80° W 02:20:07 10° S
ADEOS II 3.4 02:09:57 10° NNW 02:13:56 23° WNW 02:16:28 16° WSW
SL-16 R/B 2.5 02:10:12 10° S 02:16:25 74° WSW 02:22:42 10° NNW
Cosmos 1500 Rocket 3.8 02:12:38 10° N 02:17:03 74° E 02:21:27 10° SSE
ALOS 4.2 02:16:38 10° NW 02:18:16 12° WNW 02:19:31 11° W
CZ-2D R/B 3.9 02:19:34 10° NNW 02:22:13 14° WNW 02:24:32 11° W
EXPRESS MD2 3.7 02:23:25 12° SSW 02:25:27 36° SE 02:28:39 10° ENE
COSMOS 2428 2.8 02:20:03 10° NNW 02:25:46 86° ENE 02:31:27 10° SSE
Sich 1 3.5 02:25:25 10° NNW 02:29:14 36° W 02:33:01 10° SSW
Okean 3 Rocket 4.0 02:25:18 10° NNW 02:29:28 41° W 02:33:40 10° SSW
Cosmos 1758 3.2 02:29:25 10° NNW 02:32:56 49° W 02:36:25 10° S
Cosmos 1898 Rocket 3.9 02:29:13 10° NW 02:33:57 38° W 02:38:41 10° SSW
Cosmos 1743 Rocket 3.7 02:33:40 10° N 02:38:03 80° E 02:42:23 10° S
DELTA 2 R/B (1) 3.6 02:33:08 11° WSW 02:38:29 83° NNW 02:44:03 10° ENE
Cosmos 1937 Rocket 3.7 02:33:37 10° NNW 02:38:35 49° WSW 02:43:29 10° S
Cosmos 1805 Rocket 3.6 02:34:18 10° NNW 02:38:36 56° W 02:42:50 10° S
Cosmos 158 Rocket 4.0 02:33:23 10° SSW 02:38:37 88° WNW 02:43:58 10° NNE
Cosmos 2360 Rocket 3.9 02:39:10 10° W 02:40:32 11° W 02:41:55 10° WSW
H-2A R/B 3.3 02:44:29 10° NNW 02:47:29 21° WNW 02:50:27 10° WSW
